| time (UTC) | temp F | wind direction | speed MPH | gust MPH | rain 1hr in | rain 24hr in | rain mn in | humidity % | barometer mb |
| 20260504004544 | 58 | 266 | 8.0 | 11.0 | 0.00 | 0.00 | 0.00 | 43 | 999.8 |
| 20260504003054 | 60 | 270 | 8.0 | 12.0 | 0.00 | 0.00 | 0.00 | 38 | 999.9 |
| 20260504001600 | 61 | 273 | 10.0 | 12.0 | 0.00 | 0.00 | 0.00 | 38 | 1000.0 |
| 20260504000042 | 61 | 279 | 9.0 | 14.0 | 0.00 | 0.00 | 0.00 | 37 | 1000.1 |
| 20260503234540 | 62 | 294 | 15.0 | 21.0 | 0.00 | 0.00 | 0.00 | 34 | 1000.1 |
| 20260503233045 | 61 | 276 | 14.0 | 17.0 | 0.00 | 0.00 | 0.00 | 36 | 1000.3 |
| 20260503231545 | 62 | 294 | 19.0 | 24.0 | 0.00 | 0.00 | 0.00 | 34 | 1000.5 |
| 20260503230044 | 62 | 298 | 13.0 | 21.0 | 0.00 | 0.00 | 0.00 | 35 | 1000.7 |
| 20260503224545 | 60 | 317 | 12.0 | 16.0 | 0.00 | 0.00 | 0.00 | 35 | 1000.7 |
| 20260503223042 | 61 | 322 | 17.0 | 23.0 | 0.00 | 0.00 | 0.00 | 31 | 1000.7 |
| 20260503221546 | 59 | 298 | 18.0 | 23.0 | 0.00 | 0.00 | 0.00 | 34 | 1000.6 |
| 20260503220039 | 60 | 294 | 12.0 | 19.0 | 0.00 | 0.00 | 0.00 | 32 | 1000.7 |
| 20260503214545 | 61 | 305 | 12.0 | 23.0 | 0.00 | 0.00 | 0.00 | 28 | 1000.6 |
| 20260503213045 | 59 | 302 | 18.0 | 23.0 | 0.00 | 0.00 | 0.00 | 29 | 1000.7 |
| 20260503211543 | 59 | 303 | 12.0 | 22.0 | 0.00 | 0.00 | 0.00 | 29 | 1000.8 |
| 20260503210040 | 59 | 317 | 16.0 | 21.0 | 0.00 | 0.00 | 0.00 | 29 | 1001.0 |
| 20260503204543 | 58 | 309 | 17.0 | 22.0 | 0.00 | 0.00 | 0.00 | 33 | 1001.1 |
| 20260503203040 | 59 | 285 | 17.0 | 25.0 | 0.00 | 0.00 | 0.00 | 32 | 1001.1 |
| 20260503201538 | 60 | 302 | 20.0 | 27.0 | 0.00 | 0.00 | 0.00 | 31 | 1001.1 |
| 20260503200050 | 60 | 319 | 17.0 | 27.0 | 0.00 | 0.00 | 0.00 | 30 | 1001.3 |
| 20260503194543 | 59 | 296 | 19.0 | 27.0 | 0.00 | 0.00 | 0.00 | 31 | 1001.3 |
| 20260503193045 | 59 | 300 | 13.0 | 26.0 | 0.00 | 0.00 | 0.00 | 35 | 1001.5 |
| 20260503191539 | 59 | 317 | 21.0 | 26.0 | 0.00 | 0.00 | 0.00 | 31 | 1001.5 |
| 20260503190042 | 59 | 302 | 15.0 | 24.0 | 0.00 | 0.00 | 0.00 | 41 | 1001.6 |
| 20260503184537 | 57 | 316 | 13.0 | 23.0 | 0.00 | 0.00 | 0.00 | 43 | 1001.6 |
| 20260503183102 | 58 | 314 | 14.0 | 21.0 | 0.00 | 0.00 | 0.00 | 44 | 1001.7 |
| 20260503181608 | 57 | 323 | 16.0 | 26.0 | 0.00 | 0.00 | 0.00 | 48 | 1001.7 |
| 20260503180043 | 58 | 311 | 17.0 | 25.0 | 0.00 | 0.00 | 0.00 | 46 | 1002.1 |
| 20260503174542 | 58 | 315 | 19.0 | 29.0 | 0.00 | 0.00 | 0.00 | 52 | 1002.0 |
| 20260503173039 | 58 | 294 | 19.0 | 26.0 | 0.00 | 0.00 | 0.00 | 54 | 1002.0 |
| 20260503171537 | 57 | 303 | 19.0 | 25.0 | 0.00 | 0.00 | 0.00 | 55 | 1001.9 |
| 20260503081538 | 45 | 57 | 1.0 | 6.0 | 0.00 | 0.00 | 0.00 | 79 | 1004.2 |
| 20260503071545 | 46 | 182 | 5.0 | 10.0 | 0.00 | 0.00 | 0.00 | 76 | 1004.7 |
| 20260503060107 | 47 | 286 | 11.0 | 15.0 | 0.00 | 0.00 | 0.00 | 70 | 1005.1 |
| 20260503054544 | 48 | 284 | 12.0 | 14.0 | 0.00 | 0.00 | 0.00 | 68 | 1005.6 |
| 20260503053039 | 49 | 304 | 10.0 | 14.0 | 0.00 | 0.00 | 0.00 | 71 | 1005.6 |
| 20260503051539 | 51 | 324 | 13.0 | 21.0 | 0.00 | 0.00 | 0.00 | 67 | 1005.6 |
| 20260503050039 | 52 | 311 | 15.0 | 19.0 | 0.00 | 0.00 | 0.00 | 64 | 1005.6 |
| 20260503044542 | 46 | 302 | 3.0 | 10.0 | 0.00 | 0.00 | 0.00 | 73 | 1005.7 |
| 20260503043045 | 44 | 0 | 0.0 | 3.0 | 0.00 | 0.00 | 0.00 | 72 | 1005.6 |
| 20260503041544 | 44 | 209 | 1.0 | 4.0 | 0.00 | 0.00 | 0.00 | 72 | 1005.6 |
| 20260503040042 | 43 | 202 | 3.0 | 5.0 | 0.00 | 0.00 | 0.00 | 74 | 1005.7 |
| 20260503034538 | 43 | 202 | 2.0 | 4.0 | 0.00 | 0.00 | 0.00 | 75 | 1005.8 |
| 20260503033054 | 43 | 202 | 0.0 | 3.0 | 0.00 | 0.00 | 0.00 | 75 | 1006.0 |
| 20260503031543 | 43 | 0 | 0.0 | 4.0 | 0.00 | 0.00 | 0.00 | 77 | 1006.2 |
| 20260503030043 | 44 | 165 | 2.0 | 4.0 | 0.00 | 0.00 | 0.00 | 74 | 1006.5 |
| 20260503024544 | 45 | 165 | 1.0 | 4.0 | 0.00 | 0.00 | 0.00 | 67 | 1006.7 |
| 20260503023037 | 45 | 0 | 0.0 | 1.0 | 0.00 | 0.00 | 0.00 | 62 | 1006.8 |
| 20260503021537 | 44 | 0 | 0.0 | 2.0 | 0.00 | 0.00 | 0.00 | 65 | 1007.0 |
| 20260503020045 | 44 | 319 | 1.0 | 2.0 | 0.00 | 0.00 | 0.00 | 65 | 1007.0 |
| 20260503014544 | 43 | 319 | 1.0 | 3.0 | 0.00 | 0.00 | 0.00 | 67 | 1007.1 |
| 20260503013050 | 43 | 319 | 2.0 | 3.0 | 0.00 | 0.00 | 0.00 | 68 | 1007.2 |
| 20260503011547 | 43 | 0 | 0.0 | 3.0 | 0.00 | 0.00 | 0.00 | 67 | 1007.3 |
| 20260503010115 | 43 | 319 | 2.0 | 4.0 | 0.00 | 0.00 | 0.00 | 65 | 1007.4 |